Date String (YYYY-MM-DD hh:mm:ss) UTC,Instrument flags,Ambient pressure (hPa),Sample flow (lpm),Bypass flow (lpm),Sample temperature (°C),Ambient temperature (°C),ASC tube jacket temperature (°C),LED temperature (°C),Box temperature (°C),Sample RH (%),Span deviation,Mass concentration (μg/m³),Mass concentration (μg/m³),Mass concentration (μg/m³)
DateTimeUTC,F1_M11,P_M11,Q1_M11,Q2_M11,T1_M11,T2_M11,T3_M11,T4_M11,T5_M11,U1_M11,ZSPAN_M11,X2_M11,X0_M11,X1_M11
2022-07-11 09:00:00,,0828.5,5.01,0.00,29.3,27.4,00.0,38.1,31.1,19.9,0000.0,0005.50,0008.98,0005.02
2022-07-11 09:01:00,,0828.5,5.00,0.00,29.3,27.5,00.0,38.1,31.1,19.9,0000.0,0005.47,0008.91,0005.02
2022-07-11 09:02:00,,0828.5,5.00,0.00,29.3,27.7,00.0,38.1,31.2,19.8,0000.0,0005.43,0008.80,0005.01
2022-07-11 09:03:00,,0828.5,5.01,0.00,29.3,27.8,00.0,38.1,31.2,19.7,0000.0,0005.39,0008.63,0005.00
2022-07-11 09:04:00,,0828.5,5.00,0.00,29.4,28.0,00.0,38.1,31.3,19.6,0000.0,0005.35,0008.43,0004.99
2022-07-11 09:05:00,,0828.5,5.00,0.00,29.4,28.1,00.0,38.2,31.3,19.5,0000.0,0005.32,0008.26,0004.98
2022-07-11 09:06:00,,0828.6,5.00,0.00,29.4,28.2,00.0,38.2,31.3,19.6,0000.0,0005.32,0008.41,0004.98
2022-07-11 09:07:00,,0828.6,5.01,0.00,29.4,28.3,00.0,38.2,31.4,19.7,0000.0,0005.35,0008.80,0004.99
2022-07-11 09:08:00,,0829.0,4.98,0.00,29.5,28.4,00.0,38.2,31.4,19.8,0000.0,0005.38,0008.91,0005.00
2022-07-11 09:09:00,,0829.1,5.00,0.00,29.5,28.5,00.0,38.2,31.5,19.7,0000.0,0005.42,0008.88,0005.04
2022-07-11 09:10:00,,0828.9,5.00,0.00,29.5,28.5,00.0,38.2,31.5,19.5,0000.0,0005.45,0008.98,0005.07
2022-07-11 09:11:00,,0828.5,5.00,0.00,29.6,28.2,00.0,38.2,31.5,19.4,0000.0,0005.48,0009.46,0005.08
2022-07-11 09:12:00,,0828.9,5.01,0.00,29.5,27.5,00.0,38.2,31.4,19.4,0000.0,0005.50,0010.19,0005.09
2022-07-11 09:13:00,,0828.8,4.99,0.00,29.5,27.3,00.0,38.2,31.3,19.5,0000.0,0005.53,0010.31,0005.11
2022-07-11 09:14:00,,0828.7,5.00,0.00,29.4,27.3,00.0,38.2,31.2,19.7,0000.0,0005.57,0010.39,0005.13
2022-07-11 09:15:00,,0829.0,4.99,0.00,29.4,27.4,00.0,38.2,31.2,19.7,0000.0,0005.61,0010.50,0005.15
2022-07-11 09:16:00,,0828.8,5.02,0.00,29.4,27.6,00.0,38.2,31.2,19.7,0000.0,0005.61,0010.37,0005.17
2022-07-11 09:17:00,,0829.0,4.99,0.00,29.4,27.7,00.0,38.2,31.2,19.7,0000.0,0005.61,0010.18,0005.18
2022-07-11 09:18:00,,0828.9,5.00,0.00,29.4,27.9,00.0,38.2,31.3,19.7,0000.0,0005.61,0009.66,0005.18
2022-07-11 09:19:00,,0829.1,5.01,0.00,29.4,28.0,00.0,38.2,31.3,19.7,0000.0,0005.60,0009.80,0005.18
2022-07-11 09:20:00,,0829.1,5.01,0.00,29.4,28.1,00.0,38.2,31.3,19.6,0000.0,0005.58,0010.04,0005.17
2022-07-11 09:21:00,,0828.7,5.00,0.00,29.5,28.2,00.0,38.2,31.4,19.6,0000.0,0005.55,0009.91,0005.15
2022-07-11 09:22:00,,0828.8,5.00,0.00,29.5,28.3,00.0,38.2,31.4,19.6,0000.0,0005.54,0009.59,0005.16
2022-07-11 09:23:00,,0828.7,4.98,0.00,29.5,28.4,00.0,38.3,31.5,19.5,0000.0,0005.55,0008.89,0005.18
2022-07-11 09:24:00,,0828.6,5.01,0.00,29.6,28.5,00.0,38.3,31.5,19.6,0000.0,0005.56,0008.85,0005.18
2022-07-11 09:25:00,,0828.6,4.99,0.00,29.6,28.6,00.0,38.3,31.5,19.5,0000.0,0005.59,0008.91,0005.19
2022-07-11 09:26:00,,0828.6,5.01,0.00,29.6,28.5,00.0,38.3,31.5,19.4,0000.0,0005.56,0008.83,0005.19
2022-07-11 09:27:00,,0828.9,4.99,0.00,29.6,27.8,00.0,38.2,31.5,19.4,0000.0,0005.58,0008.87,0005.20
2022-07-11 09:28:00,,0828.5,5.01,0.00,29.6,27.4,00.0,38.2,31.4,19.4,0000.0,0005.60,0008.93,0005.21
2022-07-11 09:29:00,,0829.1,5.01,0.00,29.5,27.4,00.0,38.2,31.3,19.5,0000.0,0005.61,0009.33,0005.20
2022-07-11 09:30:00,,0829.1,4.99,0.00,29.5,27.4,00.0,38.2,31.2,19.6,0000.0,0005.60,0010.13,0005.21
2022-07-11 09:31:00,,0828.9,5.00,0.00,29.4,27.5,00.0,38.2,31.2,19.6,0000.0,0005.63,0010.43,0005.21
2022-07-11 09:32:00,,0829.0,5.01,0.00,29.4,27.7,00.0,38.2,31.2,19.6,0000.0,0005.63,0010.52,0005.21
2022-07-11 09:33:00,,0828.8,5.00,0.00,29.4,27.8,00.0,38.2,31.3,19.6,0000.0,0005.64,0010.53,0005.22
2022-07-11 09:34:00,,0828.8,5.00,0.00,29.5,28.0,00.0,38.2,31.3,19.6,0000.0,0005.65,0010.52,0005.21
2022-07-11 09:35:00,,0828.6,5.00,0.00,29.5,28.1,00.0,38.3,31.3,19.6,0000.0,0005.65,0010.45,0005.21
2022-07-11 09:36:00,,0828.6,5.00,0.00,29.5,28.2,00.0,38.3,31.4,19.6,0000.0,0005.64,0010.40,0005.20
2022-07-11 09:37:00,,0828.6,5.00,0.00,29.5,28.3,00.0,38.3,31.4,19.6,0000.0,0005.63,0010.45,0005.20
2022-07-11 09:38:00,,0828.7,4.99,0.00,29.6,28.4,00.0,38.3,31.5,19.5,0000.0,0005.66,0010.63,0005.21
2022-07-11 09:39:00,,0828.9,5.01,0.00,29.6,28.5,00.0,38.3,31.5,19.6,0000.0,0005.67,0010.56,0005.22
2022-07-11 09:40:00,,0829.0,5.00,0.00,29.6,28.5,00.0,38.3,31.5,19.7,0000.0,0005.71,0010.24,0005.24
2022-07-11 09:41:00,,0829.1,5.00,0.00,29.6,28.4,00.0,38.3,31.6,19.5,0000.0,0005.73,0009.28,0005.25
2022-07-11 09:42:00,,0829.2,5.01,0.00,29.6,27.7,00.0,38.3,31.5,19.4,0000.0,0005.74,0008.72,0005.27
2022-07-11 09:43:00,,0829.1,5.00,0.00,29.6,27.3,00.0,38.2,31.4,19.3,0000.0,0005.76,0008.60,0005.30
2022-07-11 09:44:00,,0829.1,4.99,0.00,29.5,27.3,00.0,38.3,31.3,19.3,0000.0,0005.81,0008.66,0005.33
2022-07-11 09:45:00,,0828.8,5.01,0.00,29.5,27.4,00.0,38.2,31.2,19.5,0000.0,0005.85,0008.74,0005.36
2022-07-11 09:46:00,,0829.1,4.99,0.00,29.5,27.5,00.0,38.2,31.2,19.2,0000.0,0005.90,0008.91,0005.40
2022-07-11 09:47:00,,0829.2,5.01,0.00,29.5,27.7,00.0,38.2,31.3,19.3,0000.0,0005.95,0009.00,0005.45
2022-07-11 09:48:00,,0828.8,4.99,0.00,29.5,27.8,00.0,38.2,31.3,19.5,0000.0,0006.01,0009.01,0005.49
2022-07-11 09:49:00,,0828.7,5.00,0.00,29.5,28.0,00.0,38.3,31.3,19.6,0000.0,0006.02,0008.89,0005.51
2022-07-11 09:50:00,,0828.7,5.00,0.00,29.5,28.1,00.0,38.3,31.4,19.6,0000.0,0006.03,0008.94,0005.52
2022-07-11 09:51:00,,0828.7,5.00,0.00,29.5,28.2,00.0,38.3,31.4,19.7,0000.0,0006.03,0009.03,0005.54
2022-07-11 09:52:00,,0828.7,5.00,0.00,29.5,28.3,00.0,38.3,31.4,19.5,0000.0,0006.09,0009.21,0005.56
2022-07-11 09:53:00,,0828.7,4.99,0.00,29.6,28.4,00.0,38.3,31.5,19.2,0000.0,0006.13,0009.27,0005.58
2022-07-11 09:54:00,,0828.7,5.01,0.00,29.6,28.5,00.0,38.3,31.5,19.3,0000.0,0006.18,0010.11,0005.60
2022-07-11 09:55:00,,0828.7,5.00,0.00,29.6,28.5,00.0,38.3,31.5,19.2,0000.0,0006.18,0010.29,0005.61
2022-07-11 09:56:00,,0828.8,5.00,0.00,29.7,28.6,00.0,38.4,31.6,19.3,0000.0,0006.17,0010.24,0005.60
2022-07-11 09:57:00,,0828.7,4.98,0.00,29.7,28.5,00.0,38.4,31.6,19.0,0000.0,0006.16,0010.20,0005.60
2022-07-11 09:58:00,,0828.8,5.00,0.00,29.7,27.8,00.0,38.3,31.5,18.9,0000.0,0006.16,0010.15,0005.60
2022-07-11 09:59:00,,0828.7,5.01,0.00,29.6,27.4,00.0,38.3,31.4,19.0,0000.0,0006.16,0010.12,0005.61
